Location: Ripley
(48.3812°N, 115.4473°W)
Time: 10:57:40
(UTC+00:00)

AIST 2D - Pass Details

Date: 06 July 2022
Orbit: 433 x 444 km, 97.0° (Epoch: 09 August)

Event Time Altitude Azimuth Distance (km) Brightness Sun altitude
Rises 06:31:16 0° 355° (N) 2,431 ? -17.0°
Reaches altitude 10° 06:33:57 10° 331° (NNW) 1,558 ? -17.1°
Maximum altitude 06:35:51 15° 296° (WNW) 1,305 ? -17.2°
Drops below altitude 10° 06:37:45 10° 261° (W) 1,555 ? -17.3°
Enters shadow 06:39:40 - 241° (WSW) 2,147 ? -17.4°
